Page, AZ

6:50 PM MST on December 15, 2017 (GMT -0700)
Page Municipal

Weather History for KPGA - May, 2013

Change the Weather History Date:

Tuesday, May 28, 2013

  Actual Average Record
Temperature  
Mean Temperature 74 °F -  
Max Temperature 84 °F 84 °F 99 °F (2000)
Min Temperature 63 °F 58 °F 45 °F (1962)
Cooling Degree Days 9    
Growing Degree Days 24 (Base 50)    
Moisture  
Dew Point 27 °F    
Average Humidity 17    
Maximum Humidity 31    
Minimum Humidity 6    
Precipitation  
Precipitation 0.00 in - - ()
Sea Level Pressure  
Sea Level Pressure 29.54 in    
Wind  
Wind Speed 6 mph (SW)    
Max Wind Speed 16 mph    
Max Gust Speed 33 mph    
Visibility 10 miles    
Events      
Averages and records for this station are not official NWS values.
T = Trace of Precipitation, MM = Missing Value Source: NWS Daily Summary

Daily Weather History Graph

Daily Weather History Graph

Search for Another Location

Airport or City:

Trip Planner

Search our weather history database for the weather conditions in past years. The results will help you decide how hot, cold, wet, or windy it might be!

Date:

Astronomy

May. 28, 2013 Rise Set
Actual Time 5:09 AM MST 7:37 PM MST
Civil Twilight 4:39 AM MST 8:07 PM MST
Nautical Twilight 4:02 AM MST 8:44 PM MST
Astronomical Twilight 3:21 AM MST 9:25 PM MST
Moon 11:06 PM MST (5/28) 8:59 AM MST (5/28)
Length of Visible Light 15h 27m
Length of Day
14h 27m
Waning Gibbous, 82% of the Moon is Illuminated
May 28
Waning Gibbous
May 31
Last Quarter
Jun 8
New
Jun 16
First Quarter
Jun 23
Full

Hourly Weather History & Observations

Time (MST) Temp. Dew Point Humidity Pressure Visibility Wind Dir Wind Speed Gust Speed Precip Events Conditions
12:53 AM 73.9 °F 21.9 °F 14% 29.59 in 10.0 mi SW 4.6 mph - N/A   Clear
1:53 AM 72.0 °F 21.9 °F 15% 29.57 in 10.0 mi SW 3.5 mph - N/A   Clear
2:53 AM 72.0 °F 21.9 °F 15% 29.56 in 10.0 mi Calm Calm - N/A   Clear
3:53 AM 70.0 °F 23.0 °F 17% 29.57 in 10.0 mi Calm Calm - N/A   Clear
4:53 AM 70.0 °F 24.1 °F 18% 29.57 in 10.0 mi South 5.8 mph - N/A   Clear
5:53 AM 69.1 °F 24.1 °F 18% 29.57 in 10.0 mi SSE 3.5 mph - N/A   Clear
6:53 AM 70.0 °F 25.0 °F 18% 29.57 in 10.0 mi Calm Calm - N/A   Clear
7:53 AM 73.0 °F 26.1 °F 17% 29.57 in 10.0 mi ENE 4.6 mph - N/A   Clear
8:53 AM 77.0 °F 25.0 °F 15% 29.55 in 10.0 mi Variable 3.5 mph - N/A   Clear
9:53 AM 78.1 °F 24.1 °F 14% 29.54 in 10.0 mi WSW 8.1 mph - N/A   Clear
10:53 AM 79.0 °F 25.0 °F 14% 29.53 in 10.0 mi SW 10.4 mph 16.1 mph N/A   Clear
11:53 AM 80.1 °F 26.1 °F 14% 29.51 in 10.0 mi SW 12.7 mph 23.0 mph N/A   Clear
12:53 PM 82.9 °F 27.0 °F 13% 29.47 in 10.0 mi SSW 8.1 mph 20.7 mph N/A   Scattered Clouds
1:53 PM 82.9 °F 27.0 °F 13% 29.45 in 10.0 mi SW 8.1 mph - N/A   Clear
2:53 PM 81.0 °F 28.9 °F 15% 29.44 in 10.0 mi West 13.8 mph 24.2 mph N/A   Mostly Cloudy
3:31 PM 78.8 °F 30.2 °F 17% 29.65 in 10.0 mi SW 8.1 mph 24.2 mph 0.00 in   Scattered Clouds
3:53 PM 80.1 °F 30.9 °F 17% 29.45 in 10.0 mi South 6.9 mph - 0.00 in   Scattered Clouds
4:53 PM 81.0 °F 28.9 °F 15% 29.43 in 10.0 mi SSW 9.2 mph 18.4 mph N/A   Partly Cloudy
5:53 PM 82.0 °F 26.1 °F 13% 29.42 in 10.0 mi West 10.4 mph 25.3 mph N/A   Mostly Cloudy
6:30 PM 80.6 °F 28.4 °F 15% 29.63 in 10.0 mi NW 16.1 mph 33.4 mph N/A   Scattered Clouds
6:53 PM 79.0 °F 28.9 °F 16% 29.45 in 10.0 mi WNW 11.5 mph 25.3 mph N/A   Partly Cloudy
7:53 PM 70.0 °F 35.1 °F 28% 29.54 in 10.0 mi NW 9.2 mph 19.6 mph N/A   Scattered Clouds
8:53 PM 68.0 °F 32.0 °F 26% 29.58 in 10.0 mi WNW 6.9 mph - N/A   Scattered Clouds
9:53 PM 66.9 °F 28.9 °F 24% 29.61 in 10.0 mi Variable 6.9 mph - N/A   Mostly Cloudy
10:53 PM 64.9 °F 30.9 °F 28% 29.62 in 10.0 mi SW 5.8 mph - N/A   Partly Cloudy
11:53 PM 63.0 °F 32.0 °F 31% 29.64 in 10.0 mi West 6.9 mph - N/A   Clear